Location: Petrozavodsk
(61.7857°N, 34.3593°E)
Time: 23:44:16
(UTC+03:00)

Terra - Pass Details

Date: 23 October 2019
Orbit: 702 x 703 km, 98.2° (Epoch: 22 November)

Event Time Altitude Azimuth Distance (km) Brightness Sun altitude
Exits shadow 20:24:23 23° 33° (NNE) 1,502 3.4 -23.7°
Drops below altitude 10° 20:27:24 10° 355° (N) 2,186 4.7 -24.1°
Sets 20:30:02 0° 342° (NNW) 3,108 5.7 -24.4°
